FDX75 YSSY-ZGGG

Flight info

Callsign FDX75
Flight time N/A
Altitude 30000
Route RIC6/34L RIC H530 SURVO R340 DUMAV/N0504F320 R340 AMN A461 ZAM A583 KALAH/N0495F340 A583 SABNO DCT TOFEE DCT SUKER DCT ALDOM J103 SAPAX DCT BIGEX B330 TAMOT W68 IDUMA IDUMA9
Aircraft B77L/H-SDE1E2E3FGHIJ2J3J4J5M1RWXY/LB1D1

Departure

Time N/A
Airport Sydney Kingsford Smith International Airport (YSSY)

Arrival

Time 2026-05-03 21:33
Airport Guangzhou Baiyun International Airport (ZGGG)
Time Latitude Longitude Altitude Speed Heading
2026-05-03 20:15 16.52090 117.17545 33890 ft 480 kts 330°
2026-05-03 20:15 16.58058 117.14370 33891 ft 480 kts 330°
2026-05-03 20:16 16.64055 117.11178 33890 ft 481 kts 330°
2026-05-03 20:16 16.70016 117.08003 33890 ft 481 kts 330°
2026-05-03 20:17 16.76009 117.04808 33894 ft 481 kts 330°
2026-05-03 20:17 16.81973 117.01627 33904 ft 480 kts 330°
2026-05-03 20:18 16.87914 116.98455 33908 ft 480 kts 330°
2026-05-03 20:18 16.93866 116.95275 33910 ft 480 kts 330°
2026-05-03 20:19 16.99837 116.92083 33910 ft 480 kts 330°
2026-05-03 20:19 17.05795 116.88896 33910 ft 481 kts 330°
2026-05-03 20:20 17.11790 116.85686 33909 ft 481 kts 330°
2026-05-03 20:20 17.17750 116.82493 33909 ft 481 kts 330°
2026-05-03 20:21 17.23713 116.79296 33908 ft 480 kts 330°
2026-05-03 20:21 17.29689 116.76090 33908 ft 481 kts 330°
2026-05-03 20:22 17.35624 116.72903 33908 ft 480 kts 330°
2026-05-03 20:22 17.41638 116.69672 33909 ft 481 kts 330°
2026-05-03 20:23 17.47590 116.66471 33909 ft 481 kts 330°
2026-05-03 20:23 17.53565 116.63256 33909 ft 481 kts 330°
2026-05-03 20:24 17.59503 116.60059 33909 ft 480 kts 330°
2026-05-03 20:24 17.65464 116.56846 33908 ft 480 kts 330°
2026-05-03 20:25 17.71442 116.53622 33905 ft 480 kts 330°
2026-05-03 20:25 17.77394 116.50410 33909 ft 480 kts 330°
2026-05-03 20:26 17.83347 116.47194 33907 ft 479 kts 330°
2026-05-03 20:26 17.89273 116.43990 33909 ft 479 kts 330°
2026-05-03 20:27 17.95225 116.40771 33908 ft 480 kts 330°
2026-05-03 20:27 18.01176 116.37548 33908 ft 480 kts 330°
2026-05-03 20:28 18.07107 116.34335 33909 ft 480 kts 329°
2026-05-03 20:28 18.13073 116.31100 33912 ft 479 kts 329°
2026-05-03 20:29 18.19015 116.27876 33911 ft 479 kts 329°
2026-05-03 20:29 18.24919 116.24669 33912 ft 479 kts 329°
2026-05-03 20:30 18.30854 116.21444 33911 ft 478 kts 329°
2026-05-03 20:30 18.36808 116.18205 33911 ft 479 kts 329°
2026-05-03 20:31 18.42710 116.14992 33911 ft 479 kts 329°
2026-05-03 20:31 18.48661 116.11751 33907 ft 479 kts 329°
2026-05-03 20:32 18.54596 116.08515 33914 ft 479 kts 329°
2026-05-03 20:32 18.60521 116.05283 33919 ft 479 kts 329°
2026-05-03 20:33 18.66442 116.02048 33925 ft 479 kts 329°
2026-05-03 20:33 18.72370 115.98810 33928 ft 479 kts 329°
2026-05-03 20:34 18.78358 115.95534 33929 ft 479 kts 329°
2026-05-03 20:34 18.84271 115.92298 33931 ft 479 kts 329°
2026-05-03 20:35 18.90176 115.89063 33928 ft 480 kts 329°
2026-05-03 20:35 18.95998 115.85528 33926 ft 476 kts 319°
2026-05-03 20:36 19.00616 115.80603 33928 ft 467 kts 303°
2026-05-03 20:36 19.04143 115.74792 33929 ft 466 kts 299°
2026-05-03 20:37 19.07563 115.68968 33929 ft 466 kts 299°
2026-05-03 20:37 19.10974 115.63138 33926 ft 466 kts 299°
2026-05-03 20:38 19.14391 115.57285 33927 ft 467 kts 299°
2026-05-03 20:38 19.17787 115.51459 33926 ft 466 kts 299°
2026-05-03 20:39 19.21186 115.45622 33925 ft 466 kts 299°
2026-05-03 20:39 19.24585 115.39776 33926 ft 466 kts 299°
2026-05-03 20:40 19.27982 115.33930 33929 ft 467 kts 299°
2026-05-03 20:40 19.31377 115.28079 33932 ft 467 kts 299°
2026-05-03 20:41 19.34795 115.22186 33932 ft 466 kts 299°
2026-05-03 20:41 19.38200 115.16309 33931 ft 466 kts 299°
2026-05-03 20:42 19.41585 115.10461 33931 ft 467 kts 299°
2026-05-03 20:42 19.44989 115.04574 33930 ft 467 kts 299°
2026-05-03 20:43 19.48379 114.98705 33928 ft 467 kts 299°
2026-05-03 20:43 19.51777 114.92817 33921 ft 467 kts 299°
2026-05-03 20:44 19.55188 114.86900 33924 ft 468 kts 299°
2026-05-03 20:44 19.58571 114.81028 33923 ft 467 kts 299°
2026-05-03 20:45 19.61946 114.75162 33923 ft 467 kts 299°
2026-05-03 20:45 19.65309 114.69311 33923 ft 466 kts 299°
2026-05-03 20:46 19.68691 114.63422 33924 ft 467 kts 299°
2026-05-03 20:46 19.72054 114.57558 33922 ft 465 kts 299°
2026-05-03 20:47 19.75406 114.51711 33922 ft 465 kts 299°
2026-05-03 20:47 19.78829 114.45838 33918 ft 467 kts 303°
2026-05-03 20:48 19.83356 114.40905 33921 ft 474 kts 320°
2026-05-03 20:48 19.89278 114.37611 33919 ft 483 kts 339°
2026-05-03 20:49 19.95964 114.36349 33928 ft 490 kts 352°
2026-05-03 20:49 20.02780 114.35735 33925 ft 489 kts 352°
2026-05-03 20:50 20.09584 114.35133 33925 ft 490 kts 352°
2026-05-03 20:50 20.16416 114.34531 33933 ft 491 kts 351°
2026-05-03 20:51 20.23302 114.33925 33933 ft 490 kts 351°
2026-05-03 20:51 20.30116 114.33326 33936 ft 490 kts 351°
2026-05-03 20:52 20.36931 114.32726 33942 ft 489 kts 351°
2026-05-03 20:52 20.43774 114.32124 33950 ft 490 kts 351°
2026-05-03 20:53 20.50554 114.31527 33948 ft 490 kts 351°
2026-05-03 20:53 20.57392 114.30925 33948 ft 490 kts 351°
2026-05-03 20:54 20.64200 114.30324 33947 ft 491 kts 351°
2026-05-03 20:54 20.74497 114.29414 33948 ft 492 kts 351°
2026-05-03 20:55 20.81393 114.28805 33951 ft 491 kts 351°
2026-05-03 20:55 20.88195 114.28220 33951 ft 490 kts 351°
2026-05-03 20:56 20.95010 114.27644 33953 ft 491 kts 351°
2026-05-03 20:56 21.01855 114.27063 33955 ft 491 kts 351°
2026-05-03 20:57 21.08754 114.26458 33957 ft 492 kts 351°
2026-05-03 20:57 21.15659 114.25821 33957 ft 493 kts 350°
2026-05-03 20:58 21.22622 114.25180 33957 ft 493 kts 350°
2026-05-03 20:58 21.29499 114.24548 33959 ft 492 kts 350°
2026-05-03 20:59 21.36376 114.23923 33961 ft 492 kts 351°
2026-05-03 20:59 21.43308 114.23306 33961 ft 491 kts 351°
2026-05-03 21:00 21.49113 114.22789 33962 ft 492 kts 350°
2026-05-03 21:00 21.57297 114.22059 33962 ft 493 kts 350°
2026-05-03 21:01 21.64255 114.21398 33957 ft 492 kts 346°
2026-05-03 21:01 21.70931 114.19581 33964 ft 485 kts 338°
2026-05-03 21:02 21.77471 114.17465 33958 ft 484 kts 338°
2026-05-03 21:02 21.84000 114.15348 33958 ft 484 kts 338°
2026-05-03 21:03 21.90490 114.13242 33967 ft 486 kts 338°
2026-05-03 21:03 21.96985 114.11132 33974 ft 485 kts 338°
2026-05-03 21:04 22.03445 114.09032 33975 ft 485 kts 338°
2026-05-03 21:04 22.09895 114.06934 33981 ft 485 kts 338°
2026-05-03 21:05 22.16256 114.04858 33974 ft 485 kts 336°
2026-05-03 21:05 22.22297 114.01652 33976 ft 471 kts 319°
2026-05-03 21:06 22.27068 113.96939 33979 ft 461 kts 308°
2026-05-03 21:06 22.31818 113.92183 33978 ft 469 kts 320°
2026-05-03 21:07 22.37758 113.89109 33978 ft 484 kts 338°
2026-05-03 21:07 22.44543 113.88176 33974 ft 498 kts 357°
2026-05-03 21:08 22.51484 113.89098 33976 ft 503 kts
2026-05-03 21:08 22.54939 113.89651 33864 ft 496 kts
2026-05-03 21:08 22.58340 113.90196 33051 ft 497 kts
2026-05-03 21:09 22.61799 113.90746 32072 ft 501 kts
2026-05-03 21:09 22.65248 113.91294 31265 ft 502 kts
2026-05-03 21:09 22.68694 113.91842 30538 ft 501 kts
2026-05-03 21:09 22.72145 113.92391 30079 ft 494 kts
2026-05-03 21:10 22.75523 113.92929 29600 ft 488 kts
2026-05-03 21:10 22.78886 113.93461 29083 ft 495 kts
2026-05-03 21:10 22.82332 113.94004 28530 ft 501 kts
2026-05-03 21:10 22.85781 113.94552 27954 ft 498 kts
2026-05-03 21:11 22.89194 113.94910 27393 ft 486 kts 355°
2026-05-03 21:11 22.92553 113.94733 26828 ft 475 kts 348°
2026-05-03 21:11 22.95795 113.94316 26263 ft 470 kts 347°
2026-05-03 21:11 22.99026 113.93878 25673 ft 466 kts 347°
2026-05-03 21:12 23.02267 113.93436 25089 ft 461 kts 347°
2026-05-03 21:12 23.05404 113.93007 24505 ft 457 kts 347°
2026-05-03 21:12 23.08560 113.92575 23918 ft 453 kts 347°
2026-05-03 21:12 23.11699 113.92123 23301 ft 448 kts 344°
2026-05-03 21:13 23.14740 113.91283 22324 ft 447 kts 335°
2026-05-03 21:13 23.17551 113.89907 21570 ft 439 kts 325°
2026-05-03 21:13 23.20036 113.88069 21010 ft 427 kts 315°
2026-05-03 21:13 23.22137 113.85853 20546 ft 413 kts 306°
2026-05-03 21:14 23.23812 113.83384 20091 ft 401 kts 297°
2026-05-03 21:14 23.25077 113.80710 19633 ft 390 kts 289°
2026-05-03 21:14 23.25907 113.77969 19196 ft 381 kts 281°
2026-05-03 21:14 23.26339 113.75179 18773 ft 372 kts 273°
2026-05-03 21:15 23.26317 113.72404 18347 ft 364 kts 262°
2026-05-03 21:15 23.25697 113.69752 17877 ft 359 kts 249°
2026-05-03 21:15 23.24556 113.67387 17414 ft 357 kts 244°
2026-05-03 21:15 23.23629 113.64829 16940 ft 368 kts 256°
2026-05-03 21:16 23.23188 113.62094 16420 ft 367 kts 263°
2026-05-03 21:16 23.22984 113.59332 15860 ft 365 kts 266°
2026-05-03 21:16 23.22900 113.56574 15316 ft 362 kts 268°
2026-05-03 21:16 23.22873 113.53849 14816 ft 358 kts 269°
2026-05-03 21:17 23.22893 113.51168 14338 ft 353 kts 270°
2026-05-03 21:17 23.22946 113.48550 14159 ft 340 kts 270°
2026-05-03 21:17 23.23010 113.46024 14076 ft 324 kts 270°
2026-05-03 21:17 23.23074 113.43620 13969 ft 310 kts 268°
2026-05-03 21:18 23.22668 113.41409 13843 ft 296 kts 246°
2026-05-03 21:18 23.21546 113.39584 13695 ft 286 kts 226°
2026-05-03 21:18 23.19927 113.38354 13582 ft 279 kts 211°
2026-05-03 21:18 23.18144 113.37530 13469 ft 270 kts 205°
2026-05-03 21:19 23.16404 113.36906 13357 ft 260 kts 201°
2026-05-03 21:19 23.14684 113.36390 13248 ft 250 kts 200°
2026-05-03 21:19 23.13014 113.35925 13157 ft 241 kts 200°
2026-05-03 21:19 23.11387 113.35483 13074 ft 239 kts 200°
2026-05-03 21:20 23.09776 113.35046 12977 ft 237 kts 200°
2026-05-03 21:20 23.08135 113.34602 12858 ft 240 kts 199°
2026-05-03 21:20 23.06483 113.34155 12524 ft 242 kts 199°
2026-05-03 21:20 23.04813 113.33706 12179 ft 242 kts 199°
2026-05-03 21:21 23.03178 113.33266 11867 ft 240 kts 199°
2026-05-03 21:21 23.01571 113.32833 11572 ft 238 kts 199°
2026-05-03 21:21 22.99965 113.32400 11270 ft 235 kts 199°
2026-05-03 21:21 22.98364 113.31969 10980 ft 234 kts 199°
2026-05-03 21:22 22.96770 113.31539 10689 ft 234 kts 199°
2026-05-03 21:22 22.95183 113.31112 10393 ft 234 kts 198°
2026-05-03 21:22 22.93619 113.30675 10095 ft 231 kts 204°
2026-05-03 21:22 22.92273 113.29758 9779 ft 222 kts 232°
2026-05-03 21:23 22.91515 113.28334 9506 ft 220 kts 256°
2026-05-03 21:23 22.91421 113.26670 9218 ft 222 kts 276°
2026-05-03 21:23 22.91677 113.25002 8917 ft 222 kts 280°
2026-05-03 21:23 22.92016 113.23370 8618 ft 222 kts 282°
2026-05-03 21:24 22.92400 113.21743 8317 ft 222 kts 288°
2026-05-03 21:24 22.93264 113.20356 7992 ft 227 kts 320°
2026-05-03 21:24 22.94720 113.19693 7765 ft 237 kts 352°
2026-05-03 21:24 22.96398 113.19840 7404 ft 244 kts
2026-05-03 21:25 22.98047 113.20274 7057 ft 245 kts 12°
2026-05-03 21:25 22.99717 113.20737 6722 ft 246 kts 12°
2026-05-03 21:25 23.01375 113.21188 6393 ft 246 kts 12°
2026-05-03 21:25 23.03044 113.21638 6063 ft 246 kts 12°
2026-05-03 21:26 23.04704 113.22084 5781 ft 243 kts 12°
2026-05-03 21:26 23.06353 113.22527 5428 ft 242 kts 13°
2026-05-03 21:26 23.07974 113.22961 5059 ft 240 kts 13°
2026-05-03 21:26 23.09577 113.23392 4792 ft 230 kts 13°
2026-05-03 21:27 23.11102 113.23803 4604 ft 220 kts 14°
2026-05-03 21:27 23.12567 113.24197 4341 ft 213 kts 14°
2026-05-03 21:27 23.13974 113.24575 4176 ft 202 kts 14°
2026-05-03 21:27 23.15345 113.24944 3969 ft 198 kts 14°
2026-05-03 21:28 23.16673 113.25301 3759 ft 194 kts 14°
2026-05-03 21:28 23.17980 113.25654 3555 ft 189 kts 14°
2026-05-03 21:28 23.19235 113.25991 3372 ft 182 kts 15°
2026-05-03 21:28 23.20436 113.26314 3187 ft 175 kts 15°
2026-05-03 21:29 23.21613 113.26632 3007 ft 175 kts 15°
2026-05-03 21:29 23.22807 113.26954 2828 ft 175 kts 14°
2026-05-03 21:29 23.23993 113.27274 2650 ft 172 kts 14°
2026-05-03 21:29 23.25157 113.27587 2428 ft 172 kts 14°
2026-05-03 21:30 23.26316 113.27902 2194 ft 171 kts 15°
2026-05-03 21:30 23.27488 113.28236 1964 ft 169 kts 15°
2026-05-03 21:30 23.28633 113.28543 1738 ft 169 kts 14°
2026-05-03 21:30 23.29776 113.28848 1509 ft 165 kts 14°
2026-05-03 21:31 23.30861 113.29139 1289 ft 151 kts 14°
2026-05-03 21:31 23.31840 113.29394 1067 ft 138 kts 13°
2026-05-03 21:31 23.32745 113.29625 926 ft 132 kts 13°
2026-05-03 21:31 23.33661 113.29878 733 ft 135 kts 14°
2026-05-03 21:32 23.34575 113.30133 553 ft 136 kts 13°
2026-05-03 21:32 23.35512 113.30385 372 ft 137 kts 13°
2026-05-03 21:32 23.36448 113.30633 189 ft 140 kts 13°
2026-05-03 21:32 23.37404 113.30891 60 ft 132 kts 13°
2026-05-03 21:33 23.38176 113.31100 59 ft 97 kts 14°
2026-05-03 21:33 23.38719 113.31246 59 ft 62 kts 14°
2026-05-03 21:33 23.39037 113.31333 59 ft 38 kts 14°
2026-05-03 21:33 23.39258 113.31399 59 ft 29 kts 23°
2026-05-03 21:34 23.39422 113.31513 59 ft 25 kts 42°
2026-05-03 21:34 23.39528 113.31618 59 ft 17 kts 41°
2026-05-03 21:34 23.39603 113.31680 59 ft 12 kts 27°
2026-05-03 21:34 23.39683 113.31710 59 ft 11 kts 19°
2026-05-03 21:35 23.39717 113.31765 59 ft 9 kts 88°
2026-05-03 21:35 23.39705 113.31840 59 ft 11 kts 104°
2026-05-03 21:35 23.39684 113.31930 59 ft 13 kts 104°
2026-05-03 21:35 23.39710 113.32014 59 ft 12 kts 27°
2026-05-03 21:36 23.39802 113.32042 59 ft 14 kts 13°
2026-05-03 21:36 23.39902 113.32069 59 ft 12 kts 13°
2026-05-03 21:36 23.39959 113.32097 59 ft 8 kts 62°
2026-05-03 21:36 23.39955 113.32159 59 ft 5 kts 102°
2026-05-03 21:37 23.39952 113.32179 59 ft 1 kts 103°
2026-05-03 21:37 23.39950 113.32185 59 ft 0 kts 105°